THOR ABLESTAR DEB, 327

Orbit data source: Space-Track

THOR ABLESTAR DEB, 327 is space debris in LEO originally from a launch on Thu, 29 Jun 1961 UTC launched from the Air Force Eastern Test Range (AFETR). Debris objects in space refer to the collection of defunct objects orbiting the Earth. Examples of debris include non-operational satellites, rocket bodies, and fragments generated from explosions, collisions, or faulty payload assembly.

Loading next visibility...
THOR ABLESTAR DEB details
Identifier
327, 1961-015DD
Orbit
LEO
Last TLE update12 hours ago
Origin
Flag of USUSAF SSD (US)
ManufacturerUnknown
MissionSpacecraft
Bus & MotorUnknown
MassUnknown
Launch date (UTC)
1961-06-29 (64 years ago)
Launch vehicleUnknown
Launch site
Air Force Eastern Test Range (AFETR)
Object type
Payload
Rocket body
Debris
Shape & HBRUnknown
Radar Cross SectionSmall (<0.1 m²)

Expand to show TLE details & history

TLE from 12 hours ago
0 THOR ABLESTAR DEB
1 00327U 61015DD  25024.48695926  .00000549  00000-0  48144-3 0  9999
2 00327  66.5411 202.9917 0105779 103.1312 258.1594 13.90563596216007
Epoch: 2025-01-24T11:41Z
Definitive object data (Epoch: 2025-01-24T11:41:13.28Z)
Latitude-0.00003°
Longitude-96.36307°
Altitude945.35 km
Speed7.371 km/s
True Right ascension13h 31m 58s
True Declination0° 00' 00"
Sunlit
Object was in daylight at TLE epoch
Visualization TLE readout
Latitude-65.45994°
Longitude-168.57399°
Altitude1,027.676 km
Speed7.299 km/s
Apparent Right ascension11h 10m 53s
Apparent Declination-57° 01' 06"
Sunlit
Object is in daylight
Visualization observer readout
Local Sidereal Time00:39:48
Azimuth147.241° SSE
Elevation-67.632°
Doppler factor1
Orbital elements
Apogee altitude1,002.332 km
Perigee altitude847.827 km
Semi-major axis7,303.217 km
Eccentricity0.0105779
Inclination66.5411°
RAAN202.9917°
Arg. of periapsis103.1312°
True anomaly256.97635°
Mean anomaly258.1594°
Eccentric anomaly257.56754°
Mean motion3.47754 °/min
BSTAR0.00048144
Orbital period103.52 mins
Loading maneuver chart data...

THOR ABLESTAR DEB Visibility forecast

Observer location: undefined°, undefined

Span
Click to sort rows by Start time (UTC) header in descending order
Start Az.
Max El. time (UTC)
Max El. Az.
Max El.
End time (UTC)
End Az.
6 mins2025-01-25 11:59:09.406Z140.2° SSE2025-01-25 12:02:09.406Z105.046° ESE18.292°2025-01-25 12:05:09.406Z69.959° E
10 mins2025-01-25 13:43:09.406Z223.018° SW2025-01-25 13:48:09.406Z308.672° NW41.618°2025-01-25 13:53:09.406Z22.082° NNE
6 mins2025-01-25 21:02:09.406Z11.806° NNE2025-01-25 21:05:09.406Z53.424° ENE20.538°2025-01-25 21:08:09.406Z89.458° E
10 mins2025-01-25 22:47:09.406Z321.671° NNW2025-01-25 22:51:09.406Z266.446° W41.247°2025-01-25 22:57:09.406Z165.269° S
|